Location: Unspecified
(40.7945°N, 0.0000°E)
Time: 12:04:03
(UTC+00:00)

Courier 1B - Pass Details

Date: 29 January 2021
Orbit: 962 x 1209 km, 28.3° (Epoch: 07 March)

Event Time Altitude Azimuth Distance (km) Brightness Sun altitude
Rises 19:25:39 0° 206° (SSW) 3,979 11.1 -25.0°
Reaches altitude 10° 19:30:32 10° 178° (S) 2,962 10.0 -25.9°
Enters shadow 19:32:52 12° 160° (SSE) 2,758 9.7 -26.4°
Maximum altitude 19:33:17 12° 156° (SSE) 2,748 - -26.5°
Drops below altitude 10° 19:35:59 10° 133° (SE) 2,893 - -27.0°
Sets 19:40:36 0° 106° (ESE) 3,788 - -27.8°
